Arcadia FAWN current weather conditions

sailwx.info

Wind from 029 at 6 knots

Air temperature 16.5° C
Dewpoint 9.4° C

Last reported at 2019-Dec-05 15:00 UTC.
Time now 2019-Dec-05 15:28 UTC

Location: N 27°13' W 081°50'.
View on Google Maps.

See reports from other nearby stations

  
Tides and Currents Weather Stations Pressure Air Temp Water Temp Dewpoint Dewpoint Depression Visibility Wind Speed Wind Dir Waves Ship Positions
date/time (UTC)wind fromknots sea level pressurealtimeterstation pressurevisibilityair tempwater tempwave heightnotes
2019-Dec-05 15:00 029 6 16.5
2019-Dec-05 14:45 019 5 16.1
2019-Dec-05 14:30 019 4 15.0
2019-Dec-05 14:15 023 4 14.4
2019-Dec-05 14:00 022 3 13.8
2019-Dec-05 13:45 019 1 12.6
2019-Dec-05 13:30 034 1 11.1
2019-Dec-05 13:15 066 1 10.4
2019-Dec-05 13:00 138 1 9.0
2019-Dec-05 12:45 029 0 7.6
2019-Dec-05 12:30 022 0 6.9
2019-Dec-05 12:15 039 1 6.9
2019-Dec-05 12:00 083 0 6.8
2019-Dec-05 11:45 137 1 6.9
2019-Dec-05 11:30 060 0 6.8
2019-Dec-05 11:15 066 0 6.9
2019-Dec-05 11:00 070 1 6.9
2019-Dec-05 10:45 057 2 7.0
2019-Dec-05 10:30 045 1 7.0
2019-Dec-05 10:15 037 2 7.0
2019-Dec-05 10:00 044 2 7.0
2019-Dec-05 09:45 089 0 6.9
2019-Dec-05 09:30 059 0 7.1
2019-Dec-05 09:15 115 0 7.0
2019-Dec-05 09:00 107 0 7.0
2019-Dec-05 08:45 121 0 7.3
2019-Dec-05 08:30 109 1 7.6
2019-Dec-05 08:15 121 0 7.8
2019-Dec-05 08:00 165 0 7.9
2019-Dec-05 07:45 038 0 8.0
2019-Dec-05 07:30 114 0 8.1
2019-Dec-05 07:15 149 0 8.3
2019-Dec-05 07:00 224 0 8.1
2019-Dec-05 06:45 281 0 8.0
2019-Dec-05 06:30 277 0 8.0
2019-Dec-05 06:15 201 0 8.1
2019-Dec-05 06:00 137 0 7.9
2019-Dec-05 05:45 044 0 8.1
2019-Dec-05 05:30 311 0 8.3
2019-Dec-05 05:15 243 0 8.7
2019-Dec-05 05:00 126 0 9.0
2019-Dec-05 04:45 137 0 8.8
2019-Dec-05 04:30 215 0 9.1
2019-Dec-05 04:15 249 0 9.6
2019-Dec-05 04:00 219 0 9.9
2019-Dec-05 03:45 263 0 10.0
2019-Dec-05 03:30 245 0 9.7
2019-Dec-05 03:15 304 1 9.4
2019-Dec-05 03:00 301 1 10.1
2019-Dec-05 02:45 305 0 10.7
2019-Dec-05 02:30 296 1 11.1
2019-Dec-05 02:15 282 2 10.8
2019-Dec-05 02:00 298 2 10.7
2019-Dec-05 01:45 311 3 11.1
2019-Dec-05 01:30 319 3 11.4
2019-Dec-05 01:15 322 2 12.2
2019-Dec-05 01:00 335 2 12.8
2019-Dec-05 00:45 313 2 12.6
2019-Dec-05 00:30 313 3 12.7
2019-Dec-05 00:15 318 3 13.3
2019-Dec-05 00:00 325 3 13.6
2019-Dec-04 23:45 342 2 14.5
2019-Dec-04 23:30 326 2 15.2
2019-Dec-04 23:15 318 3 15.4
2019-Dec-04 23:00 315 3 15.5
2019-Dec-04 22:45 309 4 16.4
2019-Dec-04 22:30 310 5 17.2
2019-Dec-04 22:15 316 5 18.1
2019-Dec-04 22:00 313 6 19.0
2019-Dec-04 21:45 316 7 19.4
2019-Dec-04 21:30 307 7 19.9
2019-Dec-04 21:15 302 7 20.2
2019-Dec-04 21:00 301 9 20.5
2019-Dec-04 20:45 299 9 20.7
2019-Dec-04 20:30 306 8 20.9
2019-Dec-04 20:15 310 11 20.9
2019-Dec-04 20:00 307 8 21.1
2019-Dec-04 19:45 313 10 21.0
2019-Dec-04 19:30 299 9 20.9
2019-Dec-04 19:15 296 10 20.7
2019-Dec-04 19:00 293 9 20.7
2019-Dec-04 18:45 315 8 20.7
2019-Dec-04 18:30 297 8 20.4
2019-Dec-04 18:15 314 8 20.2
2019-Dec-04 18:00 297 8 20.0
2019-Dec-04 17:45 321 8 20.0
2019-Dec-04 17:30 320 8 19.7
2019-Dec-04 17:15 332 7 19.2
2019-Dec-04 17:00 324 8 18.8
2019-Dec-04 16:45 345 7 18.9
2019-Dec-04 16:30 336 7 18.3
2019-Dec-04 16:15 338 8 17.9
2019-Dec-04 16:00 349 7 17.7
2019-Dec-04 15:45 349 7 17.3
2019-Dec-04 15:30 350 7 16.8
2019-Dec-04 15:15 350 8 16.4
2019-Dec-04 15:00 352 7 16.0
2019-Dec-04 14:45 353 8 15.8
2019-Dec-04 14:30 003 6 15.5
2019-Dec-04 14:15 001 6 15.2
2019-Dec-04 14:00 357 5 14.8
2019-Dec-04 13:45 335 4 13.9
2019-Dec-04 13:30 338 3 13.1
2019-Dec-04 13:15 335 2 12.0
2019-Dec-04 13:00 338 1 11.0
2019-Dec-04 12:45 196 1 10.1
2019-Dec-04 12:30 166 0 9.3
2019-Dec-04 12:15 177 1 9.2
2019-Dec-04 12:00 161 1 8.9
2019-Dec-04 11:45 163 1 8.9
2019-Dec-04 11:30 157 1 9.1
2019-Dec-04 11:15 142 1 9.0
2019-Dec-04 11:00 155 2 8.8
2019-Dec-04 10:45 156 1 8.9
2019-Dec-04 10:30 127 1 9.1
2019-Dec-04 10:15 147 2 9.2
2019-Dec-04 10:00 155 1 8.8
2019-Dec-04 09:45 079 1 8.7
2019-Dec-04 09:30 037 0 8.8
2019-Dec-04 09:15 113 0 8.9
2019-Dec-04 09:00 055 1 9.4
2019-Dec-04 08:45 150 2 9.5
2019-Dec-04 08:30 105 0 9.3
2019-Dec-04 08:15 126 0 9.2
2019-Dec-04 08:00 130 0 9.1
2019-Dec-04 07:45 107 1 9.3
2019-Dec-04 07:30 130 1 9.6
2019-Dec-04 07:15 124 1 9.4
2019-Dec-04 07:00 017 1 9.4
2019-Dec-04 06:45 078 1 9.6
2019-Dec-04 06:30 107 1 9.1
2019-Dec-04 06:15 317 1 8.2
2019-Dec-04 06:00 005 1 7.5
2019-Dec-04 05:45 349 2 7.9
2019-Dec-04 05:30 132 0 8.5
2019-Dec-04 05:15 170 0 8.9
2019-Dec-04 05:00 166 0 9.1
2019-Dec-04 04:45 171 1 9.2
2019-Dec-04 04:30 177 2 9.6
2019-Dec-04 04:15 204 2 9.5
2019-Dec-04 04:00 219 2 9.1
2019-Dec-04 03:45 235 2 9.2
2019-Dec-04 03:30 212 2 9.2
2019-Dec-04 03:15 205 0 9.0
2019-Dec-04 03:00 221 1 9.2
2019-Dec-04 02:45 196 2 9.6
2019-Dec-04 02:30 271 1 9.5
2019-Dec-04 02:15 274 1 9.8
2019-Dec-04 02:00 214 1 10.3
2019-Dec-04 01:45 171 1 10.6
2019-Dec-04 01:30 149 1 11.1
2019-Dec-04 01:15 123 1 11.4
2019-Dec-04 01:00 100 0 11.4
2019-Dec-04 00:45 049 0 12.0
2019-Dec-04 00:30 349 0 13.0
2019-Dec-04 00:15 347 1 13.5
2019-Dec-04 00:00 313 1 13.8
2019-Dec-03 23:45 351 3 14.0
2019-Dec-03 23:30 349 2 14.0
2019-Dec-03 23:15 336 3 14.2
2019-Dec-03 23:00 322 5 14.6
2019-Dec-03 22:45 319 6 14.7
2019-Dec-03 22:30 310 7 14.9
2019-Dec-03 22:15 312 7 15.5
2019-Dec-03 22:00 309 8 16.0
2019-Dec-03 21:45 307 8 16.5
2019-Dec-03 21:30 295 8 17.0
2019-Dec-03 21:15 298 7 17.3
2019-Dec-03 21:00 297 6 17.4
2019-Dec-03 20:45 298 7 17.5
2019-Dec-03 20:30 291 9 17.5
2019-Dec-03 20:15 298 8 17.7
2019-Dec-03 20:00 289 9 17.6
2019-Dec-03 19:45 289 9 17.6
2019-Dec-03 19:30 292 9 17.6
2019-Dec-03 19:15 284 9 17.4
2019-Dec-03 19:00 291 9 17.3
2019-Dec-03 18:45 284 7 17.1
2019-Dec-03 18:30 306 8 17.0
2019-Dec-03 18:15 286 7 16.8
2019-Dec-03 18:00 301 8 16.7
2019-Dec-03 17:45 308 6 16.4
2019-Dec-03 17:30 319 6 16.0
2019-Dec-03 17:15 329 6 15.7
2019-Dec-03 17:00 315 6 15.1
2019-Dec-03 16:45 324 4 14.6
2019-Dec-03 16:30 340 6 14.3
2019-Dec-03 16:15 357 4 13.9
2019-Dec-03 16:00 017 4 13.4
2019-Dec-03 15:45 009 5 13.3
2019-Dec-03 15:30 009 6 13.0
2019-Dec-03 15:15 024 6 12.2
2019-Dec-03 15:00 022 5 11.8